TimeEST,TemperatureF,Dew PointF,Humidity,Sea Level PressureIn,VisibilityMPH,Wind Direction,Wind SpeedMPH,Gust SpeedMPH,PrecipitationIn,Events,Conditions,WindDirDegrees,DateUTC
12:52 AM,21.0,6.1,53,29.97,10.0,WNW,17.3,25.3,N/A,,Clear,300,2012-12-31 05:52:00
1:52 AM,19.9,7.0,57,29.99,10.0,WNW,17.3,25.3,N/A,,Clear,290,2012-12-31 06:52:00
2:52 AM,19.9,6.1,55,30.00,10.0,WNW,10.4,19.6,N/A,,Clear,300,2012-12-31 07:52:00
3:52 AM,19.9,7.0,57,30.01,10.0,West,9.2,-,N/A,,Clear,270,2012-12-31 08:52:00
4:52 AM,19.0,7.0,59,30.01,10.0,West,6.9,-,N/A,,Clear,270,2012-12-31 09:52:00
5:52 AM,15.1,7.0,70,30.03,10.0,Calm,Calm,-,N/A,,Clear,0,2012-12-31 10:52:00
6:52 AM,12.0,7.0,80,30.03,10.0,Calm,Calm,-,N/A,,Scattered Clouds,0,2012-12-31 11:52:00
7:52 AM,12.0,8.1,84,30.04,10.0,Calm,Calm,-,N/A,,Mostly Cloudy,0,2012-12-31 12:52:00
9:52 AM,21.0,12.0,68,30.03,10.0,Calm,Calm,-,N/A,,Overcast,0,2012-12-31 14:52:00
10:52 AM,30.9,21.0,67,30.01,10.0,West,12.7,18.4,N/A,,Overcast,280,2012-12-31 15:52:00
11:52 AM,30.9,21.0,67,29.98,10.0,West,12.7,21.9,N/A,,Overcast,260,2012-12-31 16:52:00
12:52 PM,32.0,21.0,64,29.94,10.0,West,13.8,19.6,N/A,,Overcast,280,2012-12-31 17:52:00
1:52 PM,32.0,21.0,64,29.92,10.0,WSW,9.2,20.7,N/A,,Overcast,250,2012-12-31 18:52:00
2:06 PM,32.0,21.2,64,29.90,10.0,West,11.5,-,N/A,,Overcast,260,2012-12-31 19:06:00
2:14 PM,32.0,21.2,64,29.90,10.0,WSW,8.1,-,N/A,,Overcast,250,2012-12-31 19:14:00
2:35 PM,33.8,21.2,60,29.91,10.0,West,8.1,-,N/A,,Overcast,270,2012-12-31 19:35:00
2:52 PM,33.1,21.0,61,29.92,10.0,WSW,9.2,16.1,N/A,,Overcast,240,2012-12-31 19:52:00
3:52 PM,32.0,21.0,64,29.91,10.0,WSW,5.8,-,N/A,,Clear,250,2012-12-31 20:52:00
4:52 PM,30.9,19.9,64,29.89,10.0,WSW,3.5,-,N/A,,Clear,250,2012-12-31 21:52:00
5:52 PM,30.0,19.9,66,29.88,10.0,Calm,Calm,-,N/A,,Clear,0,2012-12-31 22:52:00
6:52 PM,30.0,19.9,66,29.87,10.0,SSE,4.6,-,N/A,,Clear,150,2012-12-31 23:52:00
7:52 PM,28.9,19.9,69,29.86,10.0,Calm,Calm,-,N/A,,Clear,0,2013-01-01 00:52:00
8:52 PM,28.9,19.9,69,29.82,10.0,SSE,4.6,-,N/A,,Clear,150,2013-01-01 01:52:00
9:52 PM,33.1,19.0,56,29.81,10.0,West,8.1,-,N/A,,Mostly Cloudy,260,2013-01-01 02:52:00
10:52 PM,32.0,19.9,61,29.78,10.0,SSW,4.6,-,N/A,,Overcast,200,2013-01-01 03:52:00
11:52 PM,33.1,19.9,59,29.76,10.0,South,5.8,-,N/A,,Overcast,190,2013-01-01 04:52:00